map of XCR home
Great Circle Mapper logo
XCR - Airport
Location
City:  Chalons-sur-Marne, France
Name:Vatry International Airport
ICAO / IATA:LFOK / XCR

Details
Type:Airport (Aerodrome, Airfield)
Use:Public/Civil, International (customs port of entry)
Latitude:4846'24"N (48.773333)
Longitude:412'22"E (4.206111)
Elevation:587 ft (179 m)
Runways:1
Longest:12664 × 148 ft (3860 × 45 m), paved

Time
Time Zone:UTC+1 (DST+2)
Local Time:

Weather
METAR:LFOK 241230Z AUTO 01007KT 330V050 9999 FEW033 SCT120 20/11 Q1017
TAF:LFOK 241100Z 2412/2512 03005KT 9999 SCT030 PROB30
TEMPO 2415/2420 2000 TSRA BKN040CB
BECMG 2509/2512 18012KT

Related Locations
Nearby:
Farthest:CHT: 12086 mi / 19450 km
Waitangi [Tuuta], Chatham Islands, NZ

Find:

   beyond  
but within

Other Information
Maps:
NOTAMs:
Links:
Sources:

  
flag of France   

Sectional Chart

Flight Planning
at skyvector.com

Satellite Image

Google Maps Satellite View

 

Copyright © 2004-2014 Karl L. Swartz. All rights reserved.
The Great Circle Mapper name and logo are trademarks of the Great Circle Mapper.
All other trademarks mentioned herein belong to their respective owners.
Please see credits for attibutions and further copyright information.

  Follow gcmap on Facebook Follow gcmap on Twitter

hCard Microformat

Geo Microformat